Regional Weather Roundup
Issued by NWS Charleston, WV

Home | Current Version | Previous Version | Graphics & Text | Print | Product List | Glossary On
Versions: 1 2 3 4 5 6 7 8 9 10 11 12 13 14 15 16 17 18 19 20 21 22 23 24 25 26 27
000
ASUS41 KRLX 250710
RWRRLX
West Virginia Regional Weather Roundup
National Weather Service Charleston WV
300 AM EDT WED MAY 25 2016

Note: "fair" indicates few or no clouds below 12,000 feet with no
significant weather and/or obstructions to visibility.

WVZ003-250800-
Northern Panhandle of West Virginia

CITY           SKY/WX    TMP DP  RH WIND       PRES   REMARKS
WHEELING         N/A     61  50  67 S6        30.12S
$$

WVZ009-250800-
Northwest West Virginia

CITY           SKY/WX    TMP DP  RH WIND       PRES   REMARKS
PARKERSBURG      N/A     54  52  93 CALM      30.15S
$$

WVZ006-250800-
Western West Virginia

CITY           SKY/WX    TMP DP  RH WIND       PRES   REMARKS
HUNTINGTON       N/A     56  53  90 E3        30.13R
$$

WVZ015-250800-
West Central West Virginia

CITY           SKY/WX    TMP DP  RH WIND       PRES   REMARKS
CHARLESTON       N/A     56  53  90 CALM      30.14S
$$

WVZ022-031-250800-
North Central West Virginia

CITY           SKY/WX    TMP DP  RH WIND       PRES   REMARKS
CLARKSBURG       N/A     53  51  93 CALM      30.15R
MORGANTOWN       N/A     56  50  80 S3        30.14F
$$

WVZ025-035-042-045-250800-
Southern West Virginia

CITY           SKY/WX    TMP DP  RH WIND       PRES   REMARKS
BECKLEY          N/A     53  46  77 CALM      30.22R
LOGAN            N/A     59  54  82 CALM      30.17S
BLUEFIELD        N/A     58  46  64 SW6       30.24R
LEWISBURG        N/A     49  47  92 CALM      30.22R
$$

WVZ047-250800-
Northern Mountains of West Virginia

CITY           SKY/WX    TMP DP  RH WIND       PRES   REMARKS
ELKINS           N/A     47  45  93 CALM      30.21S FOG
$$

WVZ052-250800-
Eastern Panhandle of West Virginia

CITY           SKY/WX    TMP DP  RH WIND       PRES   REMARKS
MARTINSBURG      N/A     62  50  64 CALM      30.09S
PETERSBURG       N/A     51  51  98 CALM      30.17R FOG
$$




USA.gov is the U.S. government's official web portal to all federal, state and local government web resources and services.